CAS500-1

Last updated on Mon Sep 07 2026 00:02:46 GMT+0000 (Coordinated Universal Time)

1 47932U 21022A 26249.61978954 .00003217 00000+0 15175-3 0 9998 2 47932 97.3777 143.1701 0005804 21.2104 338.9371 15.20163444303135
UTC large
Height (km)
Speed (km/s)
/
Latitude / Longitude
Inclination (degrees)
Orbital Period (minutes)
Azimuth
Elevation
Range (km)
Doppler Factor

Next 0 passes for location: London (51.5072 / 0.1276)

No passes found over London.
CAS500-1